Location: Newark
(13.6797°N, 8.5297°E)
Time: 01:11:11
(UTC+00:00)

Altair - Pass Details

Date: 26 January 2020
Orbit: 1502 x 1682 km, 47.2° (Epoch: 19 February)

Event Time Altitude Azimuth Distance (km) Brightness Sun altitude
Rises 13:43:19 0° 332° (NNW) 4,914 10.0 45.3°
Reaches altitude 10° 13:47:21 10° 345° (NNW) 3,909 9.5 44.6°
Maximum altitude 13:55:12 26° 37° (NE) 2,825 8.7 43.2°
Drops below altitude 10° 14:02:50 10° 90° (E) 3,808 9.3 41.8°
Sets 14:06:39 0° 102° (ESE) 4,763 9.8 41.2°
